Regional Weather Roundup
Issued by NWS

Home | Current Version | Previous Version | Text Only | Print | Product List | Glossary Off
Versions: 1 2 3 4 5 6 7 8 9 10 11 12 13 14 15 16 17 18 19 20 21 22 23 24 25 26 27 28 29 30 31 32 33 34 35 36 37 38 39 40 41 42 43 44 45 46 47 48 49 50

000
ASUS45 KBOU 272107
RWRCO

WEATHER ROUNDUP FOR COLORADO
NATIONAL WEATHER SERVICE DENVER/BOULDER CO
300 PM MDT THU APR 27 2017

NOTE: "FAIR" INDICATES FEW OR NO CLOUDS BELOW 12000 FEET WITH NO
SIGNIFICANT WEATHER AND/OR OBSTRUCTIONS TO VISIBILITY.

COZ001>005-013-030-031-272200-
...NORTHWEST COLORADO...

CITY           SKY/WX    TMP DP  RH WIND       PRES   REMARKS
CRAIG          LGT SNOW  35  30  82 S10       29.68R WCI  27
HAYDEN         PTSUNNY   37  27  65 W12G21    29.66S
MEEKER         FLURRIES  37  29  72 VRB3      29.71R
MOUNT WERNER   NOT AVBL
STEAMBOAT SPGS CLOUDY    35  29  80 W16G26    29.65R WCI  25
WALDEN           N/A     39  16  38 W15G23    29.62F
$$

COZ006>008-011-272200-
...WEST CENTRAL VALLEYS...

CITY           SKY/WX    TMP DP  RH WIND       PRES   REMARKS
GRAND JUNCTION PTSUNNY   56  20  24 NW10G20   29.62F
MONTROSE       FAIR      61   8  12 W28G36    29.63R
EAGLE          PTSUNNY   39  28  65 SW16G22   29.68R
RIFLE          PTSUNNY   50  26  39 NW6       29.63R
DELTA          PTSUNNY   58  23  25 NW17G28   29.61S
NUCLA          FAIR      59  10  14 W25G36    29.71R
$$

COZ017>023-064>068-272200-
...SOUTHWEST COLORADO...

CITY           SKY/WX    TMP DP  RH WIND       PRES   REMARKS
DURANGO        LGT RAIN  44  27  51 NW29G47   29.69R
CORTEZ         LGT RAIN  51  35  54 W7        29.68F
PAGOSA SPRINGS FAIR      50  19  29 SW16G29   29.65F
TELLURIDE      CLOUDY    39  16  39 NW8       29.74S
WOLF CREEK PAS FLURRIES  23  23 100 SW8G23    29.77R WCI  14
$$

COZ009-010-012-014-032>034-037-058>063-272200-
...CENTRAL COLORADO...

CITY           SKY/WX    TMP DP  RH WIND       PRES   REMARKS
ASPEN          SNOW      31  29  92 N9        29.67R VSB 1/2 WCI  23
BUENA VISTA    LGT SNOW  41  24  51 W25G35    29.62R
COPPER MTN     LGT SNOW  25  19  80 NW10      29.67R WCI  15
BERTHOUD PASS  CLOUDY    16   5  62 NW24G38   29.63R THUNDER WCI  -3
COTTONWOOD PAS LGT SNOW  32  25  74 NW17G29   29.61S WCI  21
GUNNISON       FAIR      45  24  43 SW15      29.62S
KREMMLING      PTSUNNY   41  34  75 S10       29.66F
LEADVILLE      SNOW      26  23  88 NW13G25   29.65R VSB 1/4 WCI  15
MONARCH PASS   CLOUDY    23  21  93 SW35G52   29.76R WCI   4
SALIDA         CLOUDY    43  26  51 W15G33    29.67R
SUNLIGHT       PTSUNNY   28  19  69 W10G23    29.71R WCI  19
WILKERSON PASS CLOUDY    32  10  40 W10G24    29.64R WCI  24
$$

COZ069>075-272200-
...SAN LUIS VALLEY/SANGRE DE CRISTO MOUNTAINS...

CITY           SKY/WX    TMP DP  RH WIND       PRES   REMARKS
ALAMOSA        PTSUNNY   50  29  44 W18       29.58F
LA VETA PASS   LGT SNOW  30  27  86 S10G24    29.74F WCI  21
SAGUACHE       PTSUNNY   43  23  45 NW36G48   29.64R
$$

COZ035-036-038>040-272200-
...NORTHERN COLORADO FRONT RANGE...

CITY           SKY/WX    TMP DP  RH WIND       PRES   REMARKS
DENVER INTL AP PTSUNNY   49  36  61 N16       29.52F
DMNS CITY PARK   N/A     52  37  56 NE9G23    29.51F
AURORA         CLOUDY    47  37  67 N10       29.54R
FRONT RANGE AP CLOUDY    50  37  62 NW16G23   29.53F
ERIE MUNI ARPT CLOUDY    47  42  81 N5        29.53F
BOULDER MUN AP FAIR      50  37  62 CALM      29.52F
CENTENNIAL     PTSUNNY   46  37  71 N9        29.52S
BROOMFIELD     PTSUNNY   46  41  81 N12       29.53F
FORT COLLINS   FAIR      47  35  63 N10       29.54S
LONGMONT       FAIR      55  38  52 NE6       29.55F HAZE
$$

COZ041-046-047-076>085-087-088-272200-
...PIKES PEAK/PALMER DIVIDE AND SOUTHERN FOOTHILLS...

CITY           SKY/WX    TMP DP  RH WIND       PRES   REMARKS
COLO. SPRINGS  PTSUNNY   52  35  52 N20       29.49R
A. F. ACADEMY  PTSUNNY   48  31  52 N21G28    29.49F
SCHRIEVER AFB  FAIR      47  35  64 N22G31    29.48F
ELLICOTT       FAIR     N/A N/A N/A NE20      29.47R THUNDER
FALCON         FAIR      46  33  62 N20G26    29.51S
FORT CARSON    PTSUNNY   54  37  53 N28       29.46R
LIMON          RAIN      40  38  93 W28G44    29.51R FOG
MONUMENT HILL  PTSUNNY   43  32  65 N15G23    29.55S
TRINIDAD       FAIR      62  31  31 SW13G20   29.48F
$$

COZ042>045-048>051-090-091-272200-
...NORTHEAST COLORADO...

CITY           SKY/WX    TMP DP  RH WIND       PRES   REMARKS
GREELEY ARPT   PTSUNNY   44  40  85 N18       29.55F
AKRON          LGT RAIN  50  37  61 E8        29.49R
BURLINGTON     NOT AVBL
WRAY           NOT AVBL
STERLING       CLOUDY    52  39  62 NE12      29.48F
HOLYOKE        FAIR      59  39  47 E20G26    29.52S
FORT MORGAN    PTSUNNY   48  35  61 N21       29.52R
$$

COZ086-089-092>099-272200-
...SOUTHEAST COLORADO...

CITY           SKY/WX    TMP DP  RH WIND       PRES   REMARKS
PUEBLO         FAIR      68  26  20 W20G25    29.39F
LA JUNTA       FAIR      68  33  27 VRB6      29.39F
LAMAR          FAIR      68  38  33 W6        29.38F
SPRINGFIELD      N/A     65  34  31 SW9       29.43R
$$



USA.gov is the U.S. government's official web portal to all federal, state and local government web resources and services.